This demonstration page uses our WeatherBlox Daily Observations layout. Learn more.

Left ArrowRight Arrow

Hourly Observations for June 25, 2018

Temp ( °F °C ) Dew Point ( °F °C ) Humidity (%) Winds ( mph kmh ) Pressure ( in mb ) Visibility ( mi km ) Precip ( " mm )
12:53 am 00:53 Clear 66 18.9 65 18.3 96 96 Calm 30.01 1016 10 16 0.00 0.00
1:53 am 01:53 Clear 64 17.8 64 17.8 100 100 Calm 30.01 1016 10 16 0.00 0.00
2:53 am 02:53 Clear 69 20.6 64 17.8 84 84 E 5 7 30.02 1017 10 16 0.00 0.00
3:53 am 03:53 Clear 67 19.4 64 17.8 91 91 ENE 5 7 30.04 1017 10 16 0.00 0.00
4:53 am 04:53 Clear 65 18.3 64 17.8 97 97 ENE 5 7 30.04 1017 10 16 0.00 0.00
5:53 am 05:53 Clear 65 18.3 64 17.8 97 97 Calm 30.06 1018 10 16 0.00 0.00
6:53 am 06:53 Mostly Cloudy 67 19.4 65 18.3 93 93 Calm 30.08 1019 10 16 0.00 0.00
7:53 am 07:53 Mostly Cloudy 69 20.6 65 18.3 87 87 E 5 7 30.10 1019 10 16 0.00 0.00
8:53 am 08:53 Sunny 69 20.6 63 17.2 81 81 E 8 13 30.11 1020 10 16 0.00 0.00
9:53 am 09:53 Partly Cloudy 69 20.6 64 17.8 84 84 E 8 13 30.11 1020 10 16 0.00 0.03
10:53 am 10:53 Partly Cloudy with Light Rain 70 21.1 64 17.8 82 82 E 8 13 30.12 1020 10 16 0.00 0.03
11:53 am 11:53 Cloudy 71 21.7 66 18.9 84 84 E 7 11 30.12 1020 10 16 0.00 0.03
12:53 pm 12:53 Cloudy with Light Rain 71 21.7 65 18.3 81 81 E 6 9 30.14 1021 10 16 0.00 0.03
1:53 pm 13:53 Cloudy with Light Rain 70 21.1 67 19.4 90 90 E 8 13 30.13 1020 10 16 0.02 0.51
2:53 pm 14:53 Cloudy with Light Rain 72 22.2 68 20 87 87 ENE 8 13 30.09 1019 10 16 0.01 0.25
3:53 pm 15:53 Mostly Cloudy 75 23.9 68 20 79 79 E 10 17 30.09 1019 10 16 0.00 0.03
4:53 pm 16:53 Mostly Cloudy 74 23.3 67 19.4 79 79 ENE 9 15 30.11 1020 10 16 0.00 0.00
5:53 pm 17:53 Cloudy 75 23.9 67 19.4 76 76 E 8 13 30.09 1019 10 16 0.00 0.00
6:53 pm 18:53 Cloudy 76 24.4 66 18.9 72 72 E 7 11 30.08 1019 10 16 0.00 0.00
7:53 pm 19:53 Partly Cloudy 76 24.4 66 18.9 72 72 ESE 7 11 30.09 1019 10 16 0.00 0.00
8:53 pm 20:53 Sunny 73 22.8 65 18.3 76 76 Calm 30.09 1019 10 16 0.00 0.00
9:53 pm 21:53 Clear 68 20 65 18.3 90 90 Calm 30.10 1019 10 16 0.00 0.00
10:53 pm 22:53 Clear 65 18.3 64 17.8 97 97 Calm 30.10 1019 10 16 0.00 0.00
11:53 pm 23:53 Partly Cloudy 65 18.3 64 17.8 97 97 Calm 30.10 1019 10 16 0.00 0.00

Powered by AerisWeather